{"data":{"norad_id":67968,"epoch":"2026-05-25T00:10:51.693600Z","epoch_age_seconds":84433,"freshness":"FRESH","line1":"1 67968U 26038H   26145.00754275  .00006208  00000+0  19447-3 0  9996","line2":"2 67968  97.2852 155.0164 0001405  98.3811 261.7591 15.33445332 14934","mean_motion":15.33445332,"eccentricity":0.0001405,"inclination_deg":97.2852,"raan_deg":155.0164,"arg_perigee_deg":98.3811,"mean_anomaly_deg":261.7591,"bstar":0.00019447,"rev_number":1493,"period_min":93.906184325585,"perigee_km":464.58064975416,"apogee_km":466.50372360562,"semimajor_km":6843.6791866799,"source":"CELESTRAK","updated_at":"2026-05-25T13:38:21.774206Z"}}